Regional Weather Roundup
Issued by NWS

Home | Current Version | Previous Version | Text Only | Print | Product List | Glossary On
Versions: 1 2 3 4 5 6 7 8 9 10 11 12 13 14 15 16 17 18 19 20 21 22 23 24 25 26 27 28 29 30 31 32 33 34 35 36 37 38 39 40 41 42 43 44 45 46 47 48 49 50
808
ASUS44 KFWD 292015
RWRTX
NORTH TEXAS HOURLY WEATHER ROUNDUP
NATIONAL WEATHER SERVICE FORT WORTH TX
300 PM CDT MON MAY 29 2017

NOTE: "FAIR" INDICATES FEW OR NO CLOUDS BELOW 12,000 FEET WITH NO
SIGNIFICANT WEATHER AND/OR OBSTRUCTIONS TO VISIBILITY.

TXZ118-119-292100-
DALLAS/FORT WORTH METROPLEX

CITY           SKY/WX    TMP DP  RH WIND       PRES   REMARKS
DFW AIRPORT    PTSUNNY   87  49  26 E8        30.02F
DALLAS LOVE    PTSUNNY   86  53  32 N7        30.03F
FTW MEACHAM    SUNNY     88  50  27 SE6       30.03F
DAL-EXECUTIVE  SUNNY     86  56  35 NE8       30.02F
FTW-ALLIANCE   PTSUNNY   89  49  25 NE6       30.03F
FTW-NAS-JRB    SUNNY     88  49  25 N5        30.03F
FTW-SPINKS     MOSUNNY   84  50  30 CALM      30.05F
ARLINGTON      SUNNY     85  46  25 VRB6      30.03F
GRAND PRAIRIE  SUNNY     84  52  32 E7        30.05F
ADDISON        MOSUNNY   84  52  32 CALM      30.04F
MESQUITE       SUNNY     82  57  42 CALM      30.04F
LANCASTER      SUNNY     85  53  33 E3        30.03F
$$

TXZ091>094-102>105-117-120-121-131>134-292100-
NORTH CENTRAL TEXAS

CITY           SKY/WX    TMP DP  RH WIND       PRES   REMARKS
SHRMAN/DENISON SUNNY     83  52  33 CALM      30.06F
GAINESVILLE    MOSUNNY   84  52  32 E7        30.07F
BOWIE          MOSUNNY   85  51  30 CALM      30.06F
BRIDGEPORT     MOSUNNY   86  47  25 E5        30.07F
DECATUR        SUNNY     84  47  27 NE6       30.06F
DENTON         SUNNY     86  54  33 N10       30.03F
MCKINNEY       MOSUNNY   84  57  39 E8        30.03F
BONHAM         SUNNY     82  52  34 E9        30.05F
GREENVILLE     MOSUNNY   84  61  45 E3        30.04F
ROCKWALL       SUNNY     83  61  46 E5        30.04F
TERRELL        PTSUNNY   83  60  45 VRB5      30.03F
WAXAHACHIE     MOSUNNY   84  57  40 E3        30.04F
CLEBURNE       SUNNY     84  55  37 E7G14     30.05F
GRANBURY       SUNNY     87  47  24 CALM      30.05F
$$

TXZ083>090-098>101-113>116-127>130-139>142-154-155-292100-
WESTERN NORTH TEXAS

CITY           SKY/WX    TMP DP  RH WIND       PRES   REMARKS
WICHITA FALLS  SUNNY     87  46  24 CALM      30.05F
WF-KICKAPOO    MOSUNNY   85  47  26 W5        30.08F
VERNON         SUNNY     87  29  12 E7        30.08F
ABILENE        SUNNY     82  50  32 SE8       30.09F
ABILENE-DYESS  MOSUNNY   82  49  31 E8        30.07F
GRAHAM         SUNNY     87  47  24 SW5       30.04F
BRECKENRIDGE   SUNNY     87  45  23 E5        30.05F
CISCO          SUNNY     82  52  34 E8G15     30.09F
EASTLAND       SUNNY     83  50  31 SE8       30.06F
RANGER         SUNNY     83  49  30 S3        30.07F
MINERAL WELLS  MOSUNNY   87  44  22 E8        30.03F
STEPHENVILLE   SUNNY     83  51  32 CALM      30.09F
COMANCHE       SUNNY     82  57  42 NE3       30.07F
BROWNWOOD      SUNNY     82  55  39 NE9       30.06F
COLEMAN        SUNNY     83  49  30 E3        30.08F
$$

TXZ143>147-156>162-174-175-292100-
CENTRAL TEXAS

CITY           SKY/WX    TMP DP  RH WIND       PRES   REMARKS
WACO           CLOUDY    80  69  69 VRB5      30.02F
WACO-TSTC      PTSUNNY   82  70  65 SW6       30.02
WACO-MCGREGOR  CLOUDY    81  69  67 S3        30.03F
HILLSBORO      PTSUNNY   82  66  57 CALM      30.02F
CORSICANA      PTSUNNY   84  67  56 E6        30.03F
MEXIA          PTSUNNY   81  68  65 N5        30.01F
HEARNE         PTSUNNY   81  68  65 NW6       30.03F
CAMERON        MOSUNNY   83  67  59 SW6       30.03F
TEMPLE         MOSUNNY   83  68  60 SW7       30.03F
KILLEEN        CLOUDY    78  67  68 SW3       30.03F
KILLEEN-SKYLRK PTSUNNY   81  68  64 VRB7      30.04F
FORT HOOD      PTSUNNY   80  66  61 W6        30.00F
HAMILTON       CLOUDY    81  63  54 SE6       30.06F
LAMPASAS       CLOUDY    79  69  72 S5        30.04F
$$

TXZ095>097-106>112-122>126-135>138-148>153-164>167-292100-
EAST TEXAS

CITY           SKY/WX    TMP DP  RH WIND       PRES   REMARKS
PARIS          SUNNY     82  57  42 E3        30.04F
SULPHUR SPRNGS CLOUDY    84  56  38 NE3       30.05F
MOUNT PLEASANT CLOUDY    82  62  51 NE3       30.04F
GILMER         CLOUDY    79  67  65 NE3       30.03S
MINEOLA        CLOUDY    82  66  57 NE7       30.02F
TYLER          CLOUDY    81  66  60 VRB3      30.02F
LONGVIEW       CLOUDY    81  72  74 CALM        N/A
MARSHALL       CLOUDY    77  67  72 W3        30.04F
ATHENS         CLOUDY    81  66  61 CALM      30.01F
PALESTINE      CLOUDY    79  68  67 CALM      30.04F
JACKSONVILLE   CLOUDY    77  67  71 W3        30.06S
HENDERSON      CLOUDY    78  70  74 CALM      30.04F
CENTER         MOCLDY    80  72  78 N5        30.03F
NACOGDOCHES    CLOUDY    79  70  73 N5        30.00F
LUFKIN         CLOUDY    79  68  69 W7        30.01F
$$

SUPPLEMENTAL OBSERVATIONS (NWS FORT WORTH AREA)

CITY           SKY/WX    TMP DP  RH WIND       PRES   REMARKS
DENISON DAM      N/A     81  57  44 NW9         N/A
CADDO GRASSLND   N/A     86  54  32 SE5G14      N/A
PAT MAYSE LAKE   N/A     82  43  24 E3          N/A
GREENVILLE       N/A     82  52  34 NE6         N/A
CEDAR HILL       N/A     88  54  31 NW3         N/A
LBJ GRASSLAND    N/A     90  50  25 N5          N/A
POSSUM KINGDOM   N/A     90  46  22 NE5G15      N/A
GRANBURY         N/A     88  46  23 SE6         N/A
MCGREGOR         N/A     84  68  58 S7          N/A
TEMPLE           N/A     84  68  58 W2          N/A
ATHENS           N/A     82  64  54 SE3         N/A
$$

SUPPLEMENTAL OBSERVATIONS (NWS NORMAN AREA)

CITY           SKY/WX    TMP DP  RH WIND       PRES   REMARKS
GOODLETT         N/A     87  37  16 E6        30.08F
ODELL            N/A     88  42  20 S10       30.08F
CROWELL          N/A     85  45  24 NE8       30.09F
KNOX CITY        N/A     87  38  17 E9        30.08F
SEYMOUR          N/A     86  43  21 NE7       30.08F
MILLERS CREEK    N/A     88  43  20 E8          N/A
$$

SUPPLEMENTAL OBSERVATIONS (NWS SAN ANGELO AREA)

CITY           SKY/WX    TMP DP  RH WIND       PRES   REMARKS
WEINERT          N/A     86  41  20 NE5       30.09F
HASKELL          N/A     85  39  19 E6        30.09F
THROCKMORTON     N/A     86  49  26 E7        30.08F
STAMFORD         N/A     85  43  22 E7        30.09F
CLYDE            N/A     81  52  36 N6        30.11F
HAMBY            N/A     84  46  26 E9          N/A
IVIE RESERVOIR   N/A     84  54  34 E7G15       N/A
COLORADO BEND    N/A     81  64  57 SW7         N/A
$$

SUPPLEMENTAL OBSERVATIONS (NWS SHREVEPORT AREA)

CITY           SKY/WX    TMP DP  RH WIND       PRES   REMARKS
CLARKSVILLE      N/A     84  55  37 NE3G12      N/A
TEXARKANA        N/A     84  68  58 SE2         N/A
LINDEN           N/A     82  64  54 W1          N/A
GILMER           N/A     82  66  57 E3          N/A
HENDERSON        N/A     81  70  69 SW2         N/A
LUFKIN           N/A     81  68  65 MISG        N/A
N SABINE NF      N/A     79  68  69 MISG        N/A
S SABINE NF      N/A     79  70  73 NE5         N/A
$$

SUPPLEMENTAL OBSERVATIONS ARE A COLLECTION OF AUTOMATED INSTRUMENTS
THAT ARE MAINTAINED BY A VARIETY OF FEDERAL AND STATE AGENCIES.
CERTAIN ELEMENTS...SUCH AS HUMIDITY VALUES AND SUSTAINED WIND
SPEEDS...MAY BE APPROXIMATED.





USA.gov is the U.S. government's official web portal to all federal, state and local government web resources and services.